Hill City, KS

9:07 PM CDT on July 24, 2017 (GMT -0500)
Hill City Municipal

Weather History for KHLC - March, 2013

Change the Weather History Date:

Saturday, March 16, 2013

  Actual Average Record
Temperature  
Mean Temperature 42 °F 42 °F  
Max Temperature 54 °F 56 °F 94 °F (2015)
Min Temperature 30 °F 28 °F 10 °F (2002)
Degree Days  
Heating Degree Days 22    
Moisture  
Dew Point 29 °F    
Average Humidity 67    
Maximum Humidity 96    
Minimum Humidity 45    
Precipitation  
Precipitation T in 0.06 in 0.24 in (1998)
Month to date precipitation 0.08 0.73  
Year to date precipitation 1.27 1.70  
Sea Level Pressure  
Sea Level Pressure 30.01 in    
Wind  
Wind Speed 13 mph (NE)    
Max Wind Speed 22 mph    
Max Gust Speed 29 mph    
Visibility 10 miles    
Events      
T = Trace of Precipitation, MM = Missing Value Source: NWS Daily Summary

Daily Weather History Graph

Daily Weather History Graph

Search for Another Location

Airport or City:

Trip Planner

Search our weather history database for the weather conditions in past years. The results will help you decide how hot, cold, wet, or windy it might be!

Date:

Astronomy

Mar. 16, 2013 Rise Set
Actual Time 7:48 AM CDT 7:47 PM CDT
Civil Twilight 7:21 AM CDT 8:14 PM CDT
Nautical Twilight 6:50 AM CDT 8:45 PM CDT
Astronomical Twilight 6:19 AM CDT 9:17 PM CDT
Moon 10:21 AM CDT (3/16) 12:00 AM CDT (3/16)
Length of Visible Light 12h 52m
Length of Day
11h 58m
Waxing Crescent, 23% of the Moon is Illuminated
Mar 16
Waxing Crescent
Mar 19
First Quarter
Mar 27
Full
Apr 2
Last Quarter
Apr 10
New

Hourly Weather History & Observations

Time (CDT) Temp. Windchill Dew Point Humidity Pressure Visibility Wind Dir Wind Speed Gust Speed Precip Events Conditions
12:53 AM 54.0 °F - 41.0 °F 62% 29.79 in 10.0 mi NE 11.5 mph - N/A   Clear
1:53 AM 50.0 °F - 37.9 °F 63% 29.83 in 10.0 mi NE 9.2 mph - N/A   Clear
2:53 AM 48.0 °F - 36.0 °F 63% 29.86 in 9.0 mi NE 9.2 mph - N/A   Clear
3:53 AM 48.0 °F - 34.0 °F 58% 29.88 in 10.0 mi NE 12.7 mph - N/A   Clear
4:53 AM 45.0 °F 36.6 °F 33.1 °F 63% 29.91 in 10.0 mi NNE 21.9 mph 28.8 mph N/A   Clear
5:53 AM 43.0 °F 36.0 °F 32.0 °F 65% 29.95 in 10.0 mi NNE 13.8 mph - N/A   Clear
6:53 AM 39.0 °F 29.6 °F 30.0 °F 70% 29.98 in 10.0 mi NNE 18.4 mph 26.5 mph N/A   Overcast
7:53 AM 36.0 °F 27.5 °F 28.9 °F 76% 30.01 in 10.0 mi NE 12.7 mph - N/A   Partly Cloudy
8:53 AM 35.1 °F 25.9 °F 28.0 °F 76% 30.04 in 10.0 mi NE 13.8 mph 21.9 mph N/A   Partly Cloudy
9:53 AM 36.0 °F 25.3 °F 28.0 °F 73% 30.04 in 10.0 mi NE 19.6 mph 25.3 mph N/A   Scattered Clouds
10:53 AM 37.9 °F 27.9 °F 27.0 °F 65% 30.06 in 10.0 mi NE 19.6 mph 25.3 mph N/A   Clear
11:53 AM 39.0 °F 31.0 °F 25.0 °F 57% 30.08 in 10.0 mi NE 13.8 mph - N/A   Mostly Cloudy
12:53 PM 41.0 °F 35.2 °F 25.0 °F 53% 30.08 in 10.0 mi NE 9.2 mph 18.4 mph N/A   Overcast
1:53 PM 44.1 °F 38.1 °F 25.0 °F 47% 30.06 in 10.0 mi NE 11.5 mph - N/A   Overcast
2:53 PM 44.1 °F 37.7 °F 24.1 °F 45% 30.04 in 10.0 mi NE 12.7 mph - N/A   Mostly Cloudy
3:53 PM 43.0 °F 37.7 °F 24.1 °F 47% 30.03 in 10.0 mi NE 9.2 mph - N/A   Overcast
4:53 PM 41.0 °F 35.2 °F 24.1 °F 51% 30.05 in 10.0 mi NE 9.2 mph - N/A   Overcast
5:53 PM 39.9 °F 32.9 °F 25.0 °F 55% 30.04 in 10.0 mi NE 11.5 mph - N/A   Overcast
6:53 PM 37.9 °F 30.0 °F 26.1 °F 62% 30.06 in 10.0 mi ENE 12.7 mph - N/A   Overcast
7:53 PM 36.0 °F 28.5 °F 27.0 °F 70% 30.09 in 10.0 mi ENE 10.4 mph - N/A   Overcast
8:53 PM 34.0 °F 25.0 °F 28.0 °F 79% 30.11 in 10.0 mi ENE 12.7 mph - N/A   Overcast
9:53 PM 33.1 °F 23.4 °F 28.0 °F 82% 30.09 in 10.0 mi East 13.8 mph - N/A   Overcast
10:53 PM 32.0 °F 22.5 °F 30.0 °F 92% 30.05 in 9.0 mi ESE 12.7 mph - 0.00 in   Overcast
11:06 PM 32.0 °F 23.0 °F 30.2 °F 93% 30.01 in 10.0 mi East 11.5 mph - 0.00 in   Overcast
11:53 PM 30.9 °F 20.7 °F 30.0 °F 96% 30.07 in 7.0 mi East 13.8 mph - 0.00 in   Overcast